Погода в Хуан-Долио

Доминиканская Республика     18°26′37″N   69°24′47″W
темп.,
°C
ветер,
м/с
пор.,
м/с
влажн.,
%
обл.,
%
осадки,
мм/ч
давл.,
гПа
погр.,
м
24 мая, вт
вт2423:00+22всв369149 1.4 1017157
02:00+22ссв23966 1.7 101588
05:00+21ссв239635 0.0 101551
08:00+25всв368310 0.0 1016443
11:00+30вюв445829 0.6 10161377
14:00+30вюв346118 4.3 10141178
17:00+28юв346657 3.6 1013982
20:00+24всв3583100 4.7 1015115
25 мая, ср
ср2523:00+23всв379493 2.4 1016194
02:00+22ссв24968 5.2 101592
05:00+22св239612 1.7 101564
08:00+24всв34845 2.4 1016293
11:00+29вюв346217 1.4 10171296
14:00+31в44539 1.5 10151695
17:00+29юв556522 0.3 1014837
20:00+24всв37885 3.9 1016173
26 мая, чт
чт2623:00+22всв38955 2.5 1017212
02:00+22всв259610 5.5 1016137
05:00+22ссз239626 0.3 101662
08:00+24всв23847 0.5 1017298
11:00+30вюв355743 0.2 10171445
14:00+30юв565964 0.4 10161010
17:00+28юв566735 1.1 1015936
20:00+24вюв368754 3.1 1017119
27 мая, пт
пт2723:00+22всв379230 0.2 1017199
02:00+22всв2494100 3.8 101684
05:00+22св2395100 0.3 101667
08:00+24всв2486100 0.5 1017242
11:00+28вюв3569100 1.0 10181154
14:00+28юв4572100 4.3 1016763
17:00+27юв4577100 3.1 1015696
20:00+25вюв368580 3.6 1016163
28 мая, сб
сб2823:00+23св369153 0.0 1017128
02:00+22св239443 0.0 101651
05:00+22св239553 0.0 101570
08:00+26в248059 0.0 1017543
11:00+30вюв555813 0.1 10171592
14:00+30юв555334 0.1 10161365
17:00+29юв455732 0.0 1014728
20:00+25вюв488487 0.2 1015265